Regional Weather Roundup
Issued by NWS

Home | Current Version | Previous Version | Text Only | Print | Product List | Glossary On
Versions: 1 2 3 4 5 6 7 8 9 10 11 12 13 14 15 16 17 18 19 20 21 22 23 24 25 26 27 28 29 30 31 32 33 34 35 36 37 38 39 40 41 42 43 44 45 46 47 48 49 50
000
ASUS46 KSTO 252315
RWRCA

NORTHERN AND CENTRAL CA REGIONAL WEATHER ROUNDUP
NATIONAL WEATHER SERVICE SACRAMENTO CA
400 PM PDT SUN JUN 25 2017

NOTE: FAIR INDICATES FEW OR NO CLOUDS BELOW 12,000 FEET WITH NO
SIGNIFICANT WEATHER AND/OR OBSTRUCTIONS TO VISIBILITY.

CAZ001-003-260000-
NORTHWEST AREA

CITY           SKY/WX    TMP DP  RH WIND       PRES   REMARKS
CRESCENT CITY  CLOUDY    60  55  83 S10       30.03F
UKIAH          SUNNY     93  56  28 W7        29.90F HX  91
$$

CAZ006-505>513-260000-
BAY AREA

CITY           SKY/WX    TMP DP  RH WIND       PRES   REMARKS
SANTA ROSA     MOSUNNY   76  57  51 SE10      29.95F
SAN RAFAEL     N/A       75  MM  MM MISG
NAPA           SUNNY     79  59  50 SW16      29.95F
CONCORD        SUNNY     81  53  37 W16       29.94F
OAKLAND CITY   N/A      MM  MM  MM MISG
OAKLAND        MOSUNNY   70  55  59 W16       30.00F
SAN FRAN CITY  N/A       62  MM  71 MISG
SAN FRAN ARPT  MOSUNNY   67  52  58 W21       30.00F
LIVERMORE      SUNNY     79  56  45 NW16      29.95F
HAYWARD        MOSUNNY   69  51  52 NW16      30.00F
REDWOOD CITY   N/A       74  MM  56 MISG
MOFFETT ARPT   SUNNY     70  57  63 N14       30.00F
SAN JOSE ARPT  SUNNY     73  58  59 NW13      29.98F
$$
CAZ034-037-514>518-260000-
CENTRAL COAST

CITY           SKY/WX    TMP DP  RH WIND       PRES   REMARKS
WATSONVILLE    SUNNY     70  58  65 S7        30.00F
SALINAS        SUNNY     68  55  63 W16G22    30.00F
MONTEREY       SUNNY     64  55  72 W12       30.03F
SAN LUIS OBISP SUNNY     74  56  53 NW16      29.96F
SANTA MARIA    SUNNY     70  57  63 NW12      29.99F
$$
CAZ015-016-260000-
NORTHERN SACRAMENTO VALLEY

CITY           SKY/WX    TMP DP  RH WIND       PRES   REMARKS
REDDING        SUNNY    102  55  20 S13       29.84F HX 100
RED BLUFF      SUNNY     98  62  30 S17       29.85F HX  99
OROVILLE       SUNNY     98  60  28 S12       29.88F HX  98
$$
CAZ016>018-260000-
SOUTHERN SACRAMENTO VALLEY

CITY           SKY/WX    TMP DP  RH WIND       PRES   REMARKS
AUBURN         SUNNY     91  52  25 S8        29.97F
BEALE AFB      SUNNY     95  62  33 S10       29.86F HX  95
LINCOLN        FAIR      95  52  23 S5        29.87F HX  92
MARYSVILLE     SUNNY     95  63  34 SE10      29.87F HX  96
SAC INTL ARPT  SUNNY     89  60  37 S16       29.87F
MATHER AIRPORT SUNNY     90  55  31 SW9       29.89F
DOWNTOWN SAC   N/A       88  MM  MM MISG
SAC EXEC ARPT  SUNNY     85  61  44 S12       29.89F
VACAVILLE      SUNNY     92  56  29 S13G22    29.88F HX  90
$$
CAZ019>021-260000-
SAN JOAQUIN VALLEY

CITY           SKY/WX    TMP DP  RH WIND       PRES   REMARKS
STOCKTON       SUNNY     92  60  34 NW14      29.90F HX  91
MODESTO        SUNNY     94  58  29 NW10      29.88F HX  93
MERCED         SUNNY     97  58  27 NW10      29.87F HX  96
LEMOORE        MOSUNNY  105  50  15 N8        29.85F HX 102
FRESNO         MOSUNNY  103  56  21 W7        29.86F HX 102
HANFORD        SUNNY    103  63  27 N6        29.86F HX 105
PORTERVILLE      N/A    104  63  26 W12       29.87F HX 106
BAKERSFIELD    SUNNY    107  56  18 NW10      29.86F HX 106
$$
CAZ011-012-071-260000-
NORTHERN MOUNTAINS

CITY           SKY/WX    TMP DP  RH WIND       PRES   REMARKS
YREKA          CLOUDY    89  56  32 S5        29.95S
MOUNT SHASTA   MOSUNNY   92  54  27 CALM      30.03S HX  90
ALTURAS        PTSUNNY   94  29  10 S9        30.05F
$$
CAZ011-012-071-260000-
SIERRA NEVADA MTNS

CITY           SKY/WX    TMP DP  RH WIND       PRES   REMARKS
BLUE CANYON    SUNNY     79  51  37 VRB6      30.24F
TRUCKEE        PTSUNNY   84  45  24 W14G24    30.24F
TAHOE VLY ARPT SUNNY     82  48  30 VRB6G18   30.26F
MAMMOTH LAKES  FAIR      84  35  17 SW12G18   30.32F
$$




USA.gov is the U.S. government's official web portal to all federal, state and local government web resources and services.